This is the latest recevied weather packets stored in our database for station/object VE2XOX. If no packets are shown the sender has not sent any weather packets the latest 10 day(s).
| Time | Temp. | Humidity | Pressure | Rain* | Wind** | Luminosity | Snow |
|---|---|---|---|---|---|---|---|
| 1778008516 | 17.78° C | 82% | 997.4 hPa | 0 mm | - | - | - |
| 1778008229 | 17.78° C | 83% | 997.7 hPa | 0 mm | - | - | - |
| 1778007913 | 17.78° C | 83% | 997.7 hPa | 0 mm | - | - | - |
| 1778007617 | 17.78° C | 87% | 997.5 hPa | 0 mm | - | - | - |
| 1778007326 | 17.22° C | 87% | 997.8 hPa | 0 mm | - | - | - |
| 1778007030 | 16.67° C | 87% | 997.9 hPa | 0 mm | - | - | - |
| 1778006716 | 16.11° C | 87% | 997.8 hPa | 0 mm | - | - | - |
| 1778006423 | 16.11° C | 89% | 997.9 hPa | 3.05 mm | - | - | - |
| 1778006127 | 15.56° C | 89% | 997.9 hPa | 6.1 mm | - | - | - |
| 1778005813 | 15.56° C | 89% | 998.1 hPa | 7.87 mm | - | - | - |
| 1778005526 | 15° C | 89% | 998.1 hPa | 9.91 mm | - | - | - |
| 1778005228 | 15° C | 89% | 998.2 hPa | 9.91 mm | - | - | - |
| 1778004913 | 15° C | 90% | 998.3 hPa | 9.91 mm | - | - | - |
| 1778004625 | 15° C | 90% | 998.3 hPa | 10.92 mm | - | - | - |
| 1778004332 | 14.44° C | 90% | 998.3 hPa | 11.94 mm | - | - | - |
| 1778004016 | 14.44° C | 90% | 998.3 hPa | 12.95 mm | - | - | - |
| 1778003727 | 14.44° C | 90% | 998.4 hPa | 13.97 mm | - | - | - |
| 1778003431 | 14.44° C | 90% | 998.5 hPa | 13.97 mm | - | - | - |
| 1778003116 | 14.44° C | 89% | 998.6 hPa | 13.97 mm | - | - | - |
| 1778002828 | 14.44° C | 89% | 998.7 hPa | 16 mm | - | - | - |
| 1778002515 | 14.44° C | 89% | 998.8 hPa | 14.99 mm | - | - | - |
| 1778002219 | 14.44° C | 89% | 998.6 hPa | 19.05 mm | - | - | - |
| 1778001932 | 14.44° C | 89% | 998.6 hPa | 17.02 mm | - | - | - |
| 1778001618 | 14.44° C | 89% | 998.4 hPa | 17.02 mm | - | - | - |
| 1778001324 | 14.44° C | 88% | 998.6 hPa | 17.02 mm | - | - | - |
* Rain latest hour (hover to see other rain measurements)
** Current wind speed in m/s (hover to see current wind gust speed)